TimeEST,TemperatureF,Dew PointF,Humidity,Sea Level PressureIn,VisibilityMPH,Wind Direction,Wind SpeedMPH,Gust SpeedMPH,PrecipitationIn,Events,Conditions,WindDirDegrees,DateUTC
12:15 AM,29.3,23.7,80,30.09,10.0,Calm,Calm,-,N/A,,Overcast,0,2012-12-10 05:15:00
12:35 AM,29.3,23.7,80,30.08,10.0,Calm,Calm,-,N/A,,Overcast,0,2012-12-10 05:35:00
12:55 AM,29.3,24.1,81,30.07,5.0,Calm,Calm,-,N/A,Snow,Light Snow,0,2012-12-10 05:55:00
1:15 AM,29.3,24.6,83,30.06,7.0,Calm,Calm,-,N/A,Snow,Light Snow,0,2012-12-10 06:15:00
1:35 AM,29.3,24.8,83,30.04,3.0,Calm,Calm,-,N/A,Snow,Light Snow,0,2012-12-10 06:35:00
1:55 AM,29.1,25.3,86,30.03,1.8,Calm,Calm,-,N/A,Snow,Light Snow,0,2012-12-10 06:55:00
2:15 AM,29.3,26.2,88,30.03,1.2,Calm,Calm,-,N/A,Snow,Light Snow,0,2012-12-10 07:15:00
2:35 AM,29.3,26.6,90,30.01,1.5,Calm,Calm,-,N/A,Snow,Light Snow,0,2012-12-10 07:35:00
2:55 AM,30.0,27.3,90,29.99,0.8,Calm,Calm,-,N/A,Snow,Snow,0,2012-12-10 07:55:00
3:15 AM,29.8,27.3,90,29.97,3.0,Calm,Calm,-,N/A,Snow,Light Snow,0,2012-12-10 08:15:00
3:55 AM,31.1,28.4,90,29.93,3.0,Calm,Calm,-,N/A,,Overcast,0,2012-12-10 08:55:00
4:15 AM,31.1,28.6,90,29.93,3.0,Calm,Calm,-,N/A,,Overcast,0,2012-12-10 09:15:00
4:35 AM,31.6,29.3,91,29.91,4.0,Calm,Calm,-,N/A,Rain,Freezing Rain,0,2012-12-10 09:35:00
4:55 AM,32.0,30.2,93,29.90,3.0,South,3.5,-,N/A,Rain,Light Rain,170,2012-12-10 09:55:00
5:15 AM,32.5,30.9,94,29.89,7.0,South,3.5,-,N/A,Rain,Rain,170,2012-12-10 10:15:00
5:35 AM,32.7,30.9,93,29.87,10.0,SSE,3.5,-,N/A,,Drizzle,160,2012-12-10 10:35:00
5:55 AM,33.3,30.9,91,29.85,7.0,Calm,Calm,-,N/A,Rain,Light Rain,0,2012-12-10 10:55:00
6:15 AM,33.3,30.6,90,29.84,5.0,Calm,Calm,-,N/A,Rain,Light Rain,0,2012-12-10 11:15:00
6:35 AM,33.3,31.1,92,29.82,5.0,Calm,Calm,-,N/A,Rain,Rain,0,2012-12-10 11:35:00
7:15 AM,33.8,31.1,90,29.80,3.0,South,3.5,-,N/A,Rain,Light Rain,190,2012-12-10 12:15:00
7:35 AM,33.8,31.5,91,29.79,3.0,South,3.5,-,N/A,Rain,Rain,180,2012-12-10 12:35:00
7:55 AM,33.4,31.3,92,29.78,3.0,South,4.6,-,N/A,Rain,Light Rain,180,2012-12-10 12:55:00
8:15 AM,33.8,32.0,93,29.76,4.0,SSE,3.5,-,N/A,Rain,Rain,160,2012-12-10 13:15:00
8:35 AM,33.8,32.0,93,29.75,4.0,South,3.5,-,N/A,Rain,Rain,170,2012-12-10 13:35:00
8:55 AM,34.2,32.0,92,29.73,4.0,South,4.6,-,N/A,Rain,Light Rain,190,2012-12-10 13:55:00
9:15 AM,34.7,32.2,91,29.72,4.0,South,4.6,-,N/A,Rain,Light Rain,190,2012-12-10 14:15:00
9:35 AM,35.1,32.5,91,29.71,4.0,SSW,3.5,-,N/A,Rain,Light Rain,210,2012-12-10 14:35:00
9:55 AM,35.6,33.3,91,29.69,10.0,South,6.9,-,N/A,Rain,Light Rain,170,2012-12-10 14:55:00
10:15 AM,36.3,33.8,91,29.68,10.0,South,8.1,-,N/A,,Overcast,170,2012-12-10 15:15:00
10:35 AM,36.1,33.6,91,29.66,10.0,South,5.8,-,N/A,,Overcast,180,2012-12-10 15:35:00
10:55 AM,36.7,34.2,91,29.64,10.0,South,6.9,-,N/A,,Overcast,190,2012-12-10 15:55:00
11:15 AM,36.9,34.3,91,29.64,10.0,South,6.9,-,N/A,,Overcast,170,2012-12-10 16:15:00
11:35 AM,36.9,34.2,90,29.64,10.0,South,4.6,-,N/A,,Overcast,170,2012-12-10 16:35:00
11:55 AM,36.9,34.3,91,29.64,10.0,SSE,5.8,-,N/A,,Overcast,160,2012-12-10 16:55:00
12:15 PM,36.9,34.3,91,29.62,10.0,SSE,5.8,-,N/A,,Overcast,150,2012-12-10 17:15:00
12:35 PM,37.4,34.7,90,29.61,10.0,SSE,4.6,-,N/A,,Overcast,150,2012-12-10 17:35:00
12:55 PM,37.8,35.2,91,29.60,10.0,SSE,6.9,-,N/A,,Overcast,160,2012-12-10 17:55:00
1:15 PM,38.3,35.8,91,29.59,10.0,SSE,6.9,-,N/A,,Overcast,160,2012-12-10 18:15:00
1:35 PM,38.7,36.0,90,29.59,10.0,South,8.1,-,N/A,,Overcast,170,2012-12-10 18:35:00
1:55 PM,38.7,36.1,91,29.57,7.0,SSE,8.1,-,N/A,,Overcast,160,2012-12-10 18:55:00
2:15 PM,38.7,36.1,91,29.57,4.0,SSE,5.8,-,N/A,,Overcast,160,2012-12-10 19:15:00
2:35 PM,38.8,36.3,91,29.56,0.8,SSE,6.9,-,N/A,,Overcast,160,2012-12-10 19:35:00
2:55 PM,39.6,37.0,91,29.55,0.5,South,5.8,-,N/A,Fog,Fog,170,2012-12-10 19:55:00
3:15 PM,39.6,37.2,91,29.54,0.2,SSE,6.9,-,N/A,Fog,Fog,160,2012-12-10 20:15:00
3:35 PM,39.9,37.4,91,29.53,0.2,South,6.9,-,N/A,Fog,Fog,170,2012-12-10 20:35:00
3:55 PM,40.5,37.9,91,29.53,0.2,South,8.1,-,N/A,Fog,Fog,170,2012-12-10 20:55:00
4:15 PM,40.5,38.1,91,29.53,0.2,South,6.9,-,N/A,,Drizzle,170,2012-12-10 21:15:00
4:35 PM,40.8,38.3,91,29.53,0.5,South,5.8,-,N/A,Rain,Rain,180,2012-12-10 21:35:00
4:55 PM,41.0,38.7,91,29.52,1.2,South,4.6,-,N/A,,Drizzle,170,2012-12-10 21:55:00
5:15 PM,41.0,38.5,91,29.51,0.5,SSE,5.8,-,N/A,,Drizzle,160,2012-12-10 22:15:00
5:35 PM,41.2,38.7,91,29.50,0.8,SSE,5.8,-,N/A,,Light Drizzle,150,2012-12-10 22:35:00
5:55 PM,41.2,38.8,91,29.49,0.5,SSE,8.1,-,N/A,,Drizzle,160,2012-12-10 22:55:00
6:15 PM,41.4,39.2,92,29.49,0.5,South,5.8,-,N/A,Rain,Light Rain,170,2012-12-10 23:15:00
6:35 PM,41.4,39.2,92,29.49,0.5,SSE,4.6,-,N/A,Rain,Light Rain,160,2012-12-10 23:35:00
6:55 PM,41.7,39.2,91,29.48,0.8,SSE,4.6,-,N/A,Rain,Light Rain,150,2012-12-10 23:55:00
7:15 PM,42.1,39.6,91,29.48,0.8,SSE,5.8,-,N/A,Rain,Light Rain,160,2012-12-11 00:15:00
7:35 PM,42.1,39.6,91,29.50,2.5,NW,5.8,9.2,N/A,Rain,Rain,310,2012-12-11 00:35:00
7:55 PM,43.2,40.6,91,29.50,7.0,North,5.8,-,N/A,Rain,Light Rain,360,2012-12-11 00:55:00
8:15 PM,42.3,39.7,91,29.51,7.0,Calm,Calm,-,N/A,Rain,Rain,0,2012-12-11 01:15:00
8:35 PM,42.4,39.9,91,29.52,10.0,NW,8.1,16.1,N/A,Rain,Rain,320,2012-12-11 01:35:00
8:55 PM,41.9,38.8,89,29.53,7.0,NNW,13.8,19.6,N/A,,Unknown,340,2012-12-11 01:55:00
9:15 PM,40.5,35.1,81,29.54,10.0,NNW,11.5,21.9,N/A,Rain,Light Rain,340,2012-12-11 02:15:00
9:55 PM,38.7,34.2,84,29.56,10.0,North,6.9,-,N/A,Rain,Light Rain,350,2012-12-11 02:55:00
10:15 PM,38.7,33.6,82,29.57,10.0,Calm,Calm,-,N/A,Rain,Rain,0,2012-12-11 03:15:00
10:35 PM,38.7,33.6,82,29.56,10.0,Calm,Calm,-,N/A,,Drizzle,0,2012-12-11 03:35:00
10:55 PM,37.8,33.6,85,29.56,10.0,NE,3.5,-,N/A,,Drizzle,40,2012-12-11 03:55:00
11:15 PM,38.3,33.4,83,29.56,10.0,Calm,Calm,-,N/A,Rain,Light Rain,0,2012-12-11 04:15:00
11:35 PM,37.8,33.6,85,29.57,10.0,West,3.5,-,N/A,,Light Drizzle,270,2012-12-11 04:35:00
11:55 PM,36.9,34.0,89,29.57,7.0,Calm,Calm,-,N/A,Rain,Light Rain,0,2012-12-11 04:55:00